O3B FM14 (43233 NORAD) Tracking and Keplerian Element Data

This shows tracking and keplerian element data for the satellite.

Feedback or suggestion? Click here.




ElementValue
Catalog43233
NameO3B FM14
Epoch Orbit2182
Epoch Day139.60422567
Epoch Year2019
RAAN24.2628
Inclination0.0412
Eccentricity0.0003143
Argument of Perigee33.8146
Mean Anonmoly301.9533
Mean Motion5.00115486
Decay Rate-2.8E-07
L11 43233U 18024C 19139.60422567 -.00000028 00000-0 00000+0 0 9995
L22 43233 0.0412 24.2628 0003143 33.8146 301.9533 5.00115486 21821

Live tracking and technical data element details for O3B FM14 (NORAD 43233). O3B FM14 can be tracked NOW for your location showing map with azimuth and elevation plus other details from your city location.

Track the satellite on the map from your city or location and see movement details for azimuth, elevation, latitude, longitude, range, height, and movement on the map or in text.







IsCatalogInMostPopularTable: catalog: 43233, numindb: 196
Update: records affected: 1



GetName: 43233 O3B FM14

Hit Count: updated at: Tue, 21 May 2019 21:02:41 GMT